Retour au catalogue

STARLINK-5240

ActifCommunicationsVLEO
NORAD 54187·PAYLOAD·🇺🇸 United States

Lancé Oct 28, 2022 depuis Vandenberg Space Force Base

Loading…

Prochains Passages (prochaines 24 heures)

TLE

FraisSource: CelesTrak SupGP

Époque: Sep 15, 2026, 01:30 UTC

1 54187C 22141AG  26258.06298611 -.00044526  00000+0 -13155-2 0  2588
2 54187  53.1578 219.2756 0001310  91.3551  45.4955 15.34413334    11

Suivez STARLINK-5240 en temps réel avec AllMySat

Download on the App Store